Regional Weather Roundup
Issued by NWS

Home | Current Version | Previous Version | Text Only | Print | Product List | Glossary On
Versions: 1 2 3 4 5 6 7 8 9 10 11 12 13 14 15 16 17 18 19 20 21 22 23 24 25 26 27 28 29 30 31 32 33 34 35 36 37 38 39 40 41 42 43 44 45 46 47 48 49 50
000
ASUS44 KFWD 200601
RWRTX
NORTH TEXAS HOURLY WEATHER ROUNDUP
NATIONAL WEATHER SERVICE FORT WORTH TX
1200 AM CST MON NOV 20 2017

NOTE: "FAIR" INDICATES FEW OR NO CLOUDS BELOW 12,000 FEET WITH NO
SIGNIFICANT WEATHER AND/OR OBSTRUCTIONS TO VISIBILITY.

TXZ118-119-200700-
DALLAS/FORT WORTH METROPLEX

CITY           SKY/WX    TMP DP  RH WIND       PRES   REMARKS
DFW AIRPORT    PTCLDY    45  34  65 S5        30.20F
6HR MIN TEMP:  45; 6HR MAX TEMP:  57;

DALLAS LOVE    CLOUDY    47  31  53 SE6       30.22F
6HR MIN TEMP:  46; 6HR MAX TEMP:  58;

FTW MEACHAM    CLEAR     47  34  60 CALM      30.21F
6HR MIN TEMP:  46; 6HR MAX TEMP:  58;

DAL-EXECUTIVE  CLEAR     47  30  51 S5        30.22F
6HR MIN TEMP:  43; 6HR MAX TEMP:  54;

FTW-ALLIANCE   PTCLDY    42  32  67 S3        30.21F
6HR MIN TEMP:  36; 6HR MAX TEMP:  52;

FTW-NAS-JRB    CLEAR     46  32  58 CALM      30.22F
6HR MIN TEMP:  45; 6HR MAX TEMP:  58;

FTW-SPINKS     HAZE      37  32  82 CALM      30.24S VSB 1
6HR MIN TEMP:  36; 6HR MAX TEMP:  53;

ARLINGTON      CLEAR     36  34  92 CALM      30.22F
6HR MIN TEMP:  35; 6HR MAX TEMP:  49;

GRAND PRAIRIE  CLEAR     46  33  59 S5        30.23F
6HR MIN TEMP:  46; 6HR MAX TEMP:  56;

ADDISON        CLOUDY    45  31  56 SE3       30.23F
6HR MIN TEMP:  45; 6HR MAX TEMP:  55;

MESQUITE       CLEAR     41  31  69 CALM      30.24S
6HR MIN TEMP:  39; 6HR MAX TEMP:  52;

LANCASTER      CLEAR     38  33  81 CALM      30.24S
6HR MIN TEMP:  38; 6HR MAX TEMP:  54;

$$

TXZ091>094-102>105-117-120-121-131>134-200700-
NORTH CENTRAL TEXAS

CITY           SKY/WX    TMP DP  RH WIND       PRES   REMARKS
SHRMAN/DENISON PTCLDY    47  27  45 SE9       30.22F
6HR MIN TEMP:  45; 6HR MAX TEMP:  50;

BOWIE          CLOUDY    38  29  71 SE3       30.20S
6HR MIN TEMP:  37; 6HR MAX TEMP:  50;

DENTON         MOCLDY    35  30  82 CALM      30.21F
6HR MIN TEMP:  34; 6HR MAX TEMP:  52;

MCKINNEY       CLOUDY    42  32  67 S3        30.22F HAZE
6HR MIN TEMP:  39; 6HR MAX TEMP:  54;

BONHAM         CLOUDY   N/A N/A N/A S6        30.22F
ROCKWALL       CLEAR     46  29  51 CALM      30.23S
6HR MIN TEMP:  45; 6HR MAX TEMP:  54;

TERRELL        CLEAR     39  33  79 CALM      30.24F
6HR MIN TEMP:  38; 6HR MAX TEMP:  55;

WAXAHACHIE     CLEAR     39  36  87 CALM      30.24F
6HR MIN TEMP:  38; 6HR MAX TEMP:  53;

CLEBURNE       CLEAR     43  30  61 SE3       30.23F
GRANBURY       CLOUDY    38  33  81 CALM      30.24S
6HR MIN TEMP:  38; 6HR MAX TEMP:  54;

$$

TXZ083>090-098>101-113>116-127>130-139>142-154-155-200700-
WESTERN NORTH TEXAS

CITY           SKY/WX    TMP DP  RH WIND       PRES   REMARKS
WICHITA FALLS  CLOUDY    38  27  64 S12       30.17S WCI  30
6HR MIN TEMP:  37; 6HR MAX TEMP:  51;

WF-KICKAPOO    CLOUDY    42  29  60 S8        30.20S WCI  37
6HR MIN TEMP:  40; 6HR MAX TEMP:  55;

VERNON         CLOUDY    43  23  46 SW5       30.17F WCI  40
6HR MIN TEMP:  31; 6HR MAX TEMP:  90;

ABILENE        CLOUDY    38  30  73 S6        30.19F WCI  33
6HR MIN TEMP:  37; 6HR MAX TEMP:  50;

ABILENE-DYESS  CLOUDY    32  28  85 S6          N/A  WCI  26
6HR MIN TEMP:  32; 6HR MAX TEMP:  48;

GRAHAM           N/A     41  30  66 CALM      30.19S
6HR MIN TEMP:  41; 6HR MAX TEMP:  53;

BRECKENRIDGE   CLOUDY    42  30  62 SE6       30.20S WCI  38
6HR MIN TEMP:  41; 6HR MAX TEMP:  59;

CISCO          CLOUDY    43  28  56 S6        30.21S WCI  39
EASTLAND       CLOUDY    29  26  87 CALM      30.21S
6HR MIN TEMP:  29; 6HR MAX TEMP:  47;

RANGER         CLOUDY    42  29  60 S5        30.21F WCI  39
6HR MIN TEMP:  34; 6HR MAX TEMP:  85;

MINERAL WELLS  CLOUDY    39  29  67 SE7       30.20F WCI  34
6HR MIN TEMP:  37; 6HR MAX TEMP:  54;

STEPHENVILLE   CLOUDY    41  30  66 CALM      30.24S
6HR MIN TEMP:  40; 6HR MAX TEMP:  53;

COMANCHE       CLOUDY    41  30  64 S6        30.21F WCI  38
6HR MIN TEMP:  41; 6HR MAX TEMP:  52;

COLEMAN        CLOUDY    36  30  78 SW3       30.20F
6HR MIN TEMP:  36; 6HR MAX TEMP:  53;

$$

TXZ143>147-156>162-174-175-200700-
CENTRAL TEXAS

CITY           SKY/WX    TMP DP  RH WIND       PRES   REMARKS
WACO           PTCLDY    39  33  79 CALM      30.23F
6HR MIN TEMP:  37; 6HR MAX TEMP:  48;

WACO-MCGREGOR  PTCLDY    39  33  79 CALM      30.23F
6HR MIN TEMP:  39; 6HR MAX TEMP:  54;

HILLSBORO      CLOUDY    45  32  60 CALM      30.23F
6HR MIN TEMP:  42; 6HR MAX TEMP:  55;

CORSICANA      PTCLDY    43  32  65 CALM      30.25F
6HR MIN TEMP:  42; 6HR MAX TEMP:  55;

MEXIA          CLEAR     47  27  45 CALM      30.23F
6HR MIN TEMP:  42; 6HR MAX TEMP:  53;

HEARNE         CLOUDY    40  38  91 CALM      30.24F
6HR MIN TEMP:  40; 6HR MAX TEMP:  55;

CAMERON        PTCLDY    44  34  66 CALM      30.23F
6HR MIN TEMP:  44; 6HR MAX TEMP:  57;

TEMPLE         CLEAR     43  31  62 N3        30.23F
6HR MIN TEMP:  38; 6HR MAX TEMP:  57;

KILLEEN        CLEAR     46  30  54 CALM      30.21S
6HR MIN TEMP:  43; 6HR MAX TEMP:  51; 6HR PCP: TRACE;

KILLEEN-SKYLRK PTCLDY    40  34  79 CALM      30.23S
6HR MIN TEMP:  39; 6HR MAX TEMP:  52;

FORT HOOD      CLOUDY    48  30  51 CALM      30.19S
6HR MIN TEMP:  45; 6HR MAX TEMP:  56;

GATESVILLE     CLOUDY    37  32  81 CALM      30.24F
HAMILTON       PTCLDY    45  31  56 S6        30.22F
6HR MIN TEMP:  44; 6HR MAX TEMP:  54;

LAMPASAS       CLOUDY    40  34  78 CALM      30.22S
6HR MIN TEMP:  40; 6HR MAX TEMP:  53;

$$

TXZ095>097-106>112-122>126-135>138-148>153-164>167-200700-
EAST TEXAS

CITY           SKY/WX    TMP DP  RH WIND       PRES   REMARKS
PARIS          PTCLDY    42  28  57 SE5       30.23F WCI  39
6HR MIN TEMP:  40; 6HR MAX TEMP:  54;

SULPHUR SPRNGS CLEAR     40  35  80 CALM      30.25F
6HR MIN TEMP:  40; 6HR MAX TEMP:  54;

MOUNT PLEASANT CLEAR     37  35  95 CALM      30.25F
6HR MIN TEMP:  37; 6HR MAX TEMP:  55;

GILMER         CLOUDY    37  34  90 MISG      30.24S
6HR MIN TEMP:  37; 6HR MAX TEMP:  48;

MINEOLA        PTCLDY    36  34  93 CALM      30.23F
TYLER          CLEAR     40  35  83 CALM      30.23F
6HR MIN TEMP:  39; 6HR MAX TEMP:  52;

LONGVIEW       NOT AVBL
MARSHALL       CLEAR     35  33  92 CALM      30.26F
6HR MIN TEMP:  35; 6HR MAX TEMP:  46;

ATHENS         CLOUDY    34  32  93 CALM      30.23F
PALESTINE      CLOUDY    38  36  91 CALM      30.25F FOG
JACKSONVILLE   CLOUDY    48  30  49 E3        30.26S
HENDERSON      CLOUDY    36  35  96 CALM      30.25F
6HR MIN TEMP:  36; 6HR MAX TEMP:  47;

CENTER         CLOUDY    36  35  94 CALM      30.26S
6HR MIN TEMP:  36; 6HR MAX TEMP:  46;

NACOGDOCHES    PTCLDY    36  34  92 CALM      30.25F
6HR MIN TEMP:  36; 6HR MAX TEMP:  51;

LUFKIN         CLOUDY    41  37  86 CALM      30.24F
6HR MIN TEMP:  41; 6HR MAX TEMP:  51;

$$

SUPPLEMENTAL OBSERVATIONS (NWS FORT WORTH AREA)

CITY           SKY/WX    TMP DP  RH WIND       PRES   REMARKS
$$

SUPPLEMENTAL OBSERVATIONS (NWS NORMAN AREA)

CITY           SKY/WX    TMP DP  RH WIND       PRES   REMARKS
GOODLETT         N/A     37  21  53 SW8       30.15S WCI  30
ODELL            N/A     45  25  46 S12       30.17F WCI  39
CROWELL          N/A     41  23  49 SW8       30.17F WCI  36
KNOX CITY        N/A     38  26  60 S10       30.19S WCI  31
SEYMOUR



USA.gov is the U.S. government's official web portal to all federal, state and local government web resources and services.